Simultaneous Nadir Overpasses (SNOs) Predictions

Prediction of SNOs between GOES-14 and NPP Satellite Orbit:

Table of predicted SNOs for the next 14.0 days since TLE Epoch: 7/9/2022
Index Date Time (GOES-14) GOES-14 Lat,Lon NPP Lat,Lon Distance(km) Time Diff (sec)
1 07/09/2022 08:30:28 -0.23,-104.51 0.21,-106.58 235.59 80
2 07/10/2022 08:14:24 -0.22,-104.51 -0.75,-102.05 280.07 80
3 07/11/2022 20:33:43 0.26,-104.79 -0.35,-107.37 295.35 80
4 07/12/2022 20:17:40 0.24,-104.78 0.67,-102.85 220.36 80
5 07/14/2022 08:36:49 -0.28,-104.48 0.51,-108.12 414.08 80
6 07/15/2022 08:20:44 -0.26,-104.48 -0.46,-103.59 101.41 80
7 07/16/2022 20:40:04 0.30,-104.75 -0.64,-108.91 474.37 80
8 07/17/2022 20:24:00 0.28,-104.75 0.38,-104.39 42.04 80
9 07/20/2022 08:24:25 -0.30,-104.47 -0.18,-105.13 74.65 80
10 07/21/2022 08:08:21 -0.28,-104.46 -1.14,-100.59 441.33 80
11 07/22/2022 20:27:40 0.32,-104.74 0.05,-105.92 134.40 80
